Погода в Боровичи

Погода в Боровичи : погода сейчас, прогноз погоды и архив. Всё, что Вы хотите узнать о погоде в Боровичи!

Поиск расширенной информации на нашем сайте:

Другие новости

Новости СМИ2

Главная страница сайта

Новости сайта

03.07.2017

Напоминаем, что на нашем специализированном сайте Метеоцентр.Азия вы можете получить высокодетализированные автоматические прогнозы погоды по пунктам России, СНГ и мира в авиационном формате (включающие направление и скорость ветра, видимость, явления погоды, количество и форму облачности, нижнюю и верхнюю границу облачности).

Рекомендуем: Поставка запчастей КамАЗ. Смотреть спецпредложение на запчасти камаз

Погода в Боровичи - сегодня

Время (UTC), дата Ветер
(°,м/с) 
Видим.   Явления Облачность Т
(°С)
Тd
(°С)
f(%) Тe
(°С)
Pmin
(гПа)
dP
(гПа)
Po
(мм)
O2
(г/м3)
Тmin Tmax R s Состояние
почвы
03 17.10.17 300 (СЗ) 3{10}  20000 м    9/9 500 м 
[Sc]
+7.9 +5.2 83 +7  1009  2.7  749  292  +6.8    0.4     
06 17.10.17 290 (З) 20000 м    1/1 600 м 
[Cu hum]
+6.4 +4 85 +6  1011.2  2.1  750  295  +6.4    0.4     
09 17.10.17 290 (З) 20000 м    ясно 
+8.6 +3.3 69 +8  1012.2  2.1  751  293           
12 17.10.17 280 (З) 20000 м    ясно 
+9.5 +2 59 +10  1012.6  0.4  751  292           
15 17.10.17 260 (З) 20000 м    1/0 средняя 
[Ac trans]
+6 +2.1 76 +7  1011.7  -1  751  296           
18 17.10.17 220 (ЮЗ) 4000 м  ливневой дождь  10/10 840 м кучево-дожд. 
[Cb calv]
+6.3 +5.5 95 +7  1010  -1.7  749  294    +9.8     
21 17.10.17 210 (ЮЗ) 20000 м  {ливн. осадки}  10/10 540 м 
[Sc]
+7.5 +6.3 92 +7  1004.9  -4.9  746  291           
00 18.10.17 260 (З) 20000 м  {ливн. осадки}  10/10 420 м 
[Sc]
+10.8 +9.1 89 +10  1001.8  -2.9  743  287           
03 18.10.17 280 (З) 20000 м    10/10 600 м 
[Sc]
+11.8 +9.1 84 +12  1000.1  -2.9  742  285  +5.8       
06 18.10.17 280 (З) 10 км  слаб. ливневой дождь  10/10 420 м кучево-дожд. 
[Cb calv]
+10.6 +9 90 +10  999.5  -0.6  742  286  +6.2       
09 18.10.17 260 (З) 4{10}  10 км  слаб. ливневой дождь  10/10 600 м кучево-дожд. 
[Cb calv]
+11.6 +8.1 79 +11  998.5  -0.6  741  285           
12 18.10.17 260 (З) 3{12}  20000 м  {ливн. осадки}  10/10 660 м 
[Sc]
+10.8 +8.5 86 +10  998.6  741  286           
15 18.10.17 300 (СЗ) 3{11}  20000 м  в посл. час ливневой дождь  9/9 750 м кучево-дожд. 
[Cb calv]
+9.8 +7.7 87 +9  999.7  1.1  742  287         
18 18.10.17 300 (СЗ) 4{14}  20000 м  в посл. час ливневой дождь  9/9 800 м кучево-дожд. 
[Cb calv]
+5.6 +3.2 85 +4  1004.9  4.9  746  294    +11.8     
21 18.10.17 280 (З) 20000 м    9/9 540 м 
[Sc]
+5.1 +3.2 88 +5  1006.8  1.8  747  295           
00 19.10.17 280 (З) 20000 м    10/10 1080 м 
[Sc]
+5.2 +2.9 85 +4  1008  1.2  748  295           
03 19.10.17 290 (З) 20000 м  {ливн. осадки}  10/10 450 м 
[Sc]
+4.7 +3.4 91 +4  1009.3  1.3  749  296  +4.5    0.8     
06 19.10.17 300 (СЗ) 20000 м  {ливн. осадки}  9/9 540 м 
[Sc]
+5 +3.1 87 +4  1011.1  1.8  750  296  +4.2    0.3     
09 19.10.17 290 (З) 20000 м  {ливн. осадки}  8/8 300 м 
[Sc]
+6.8 +2.3 73 +6  1013.1  752  295           
12 19.10.17 280 (З) 20000 м  {ливн. осадки}  6/6 600 м 
[Sc]
+7.5 +0.6 62 +7  1014.3  1.3  753  295           
15 19.10.17 300 (СЗ) 20000 м  {ливн. осадки}  8/8 1000 м 
[Sc]
+5.2 +1.6 78 +5  1016  1.5  754  298      0.3     
18 19.10.17 тихо ()   20000 м  {ливн. осадки}  6/6 600 м 
[Sc]
+2.7 +1.5 92 +3  1017.4  1.3  755  301    +8.1  0.3     
21 19.10.17 310 (СЗ) 20000 м    10/10 720 м 
[Sc]
+2.8 +1.9 94 +4  1018.7  1.3  756  301           
00 20.10.17 290 (З) 20000 м    10/10 330 м 
[Sc]
+3 +2.1 94 +4  1019.5  0.7  756  301           
03 20.10.17 300 (СЗ) 20000 м    10/10 600 м 
[Sc]
+3 +1.5 90 +4  1020.3  0.9  757  301  +2.4         
Время (UTC), дата Ветер
(°,м/с) 
Видим.   Явления Облачность Т
(°С)
Тd
(°С)
f(%) Тe
(°С)
Pmin
(гПа)
dP
(гПа)
Po
(мм)
O2
(г/м3)
Тmin Tmax R s Состояние
почвы

Для получения пояснительной информации подведите курсор к названию столбца.

ПОГОДА в Боровичи - архив

Всё, что Вы хотите узнать о погоде в Боровичи - удобно и подробно!

Выберите нужную дату (начиная с 1 января 2015* года) и нажмите кнопку "Найти".
Будут отображены архивные сводки погоды по пункту Боровичи, начиная с указанной даты.


Отображать данные в формате CSV (для использования в таблицах Excel)


Внимание! Наш архив погоды предназначен исключительно для личного некоммерческого использования в познавательных целях. Если Вам необходимы официальные справки о состоянии погоды (для производственных, юридических, коммерческих и т.п. целей), обращайтесь в органы Росгидромета.

*Примечание: данная дата относится к архиву по метеостанциям СССР (Россия, СНГ, Балтия).
Архив по метеостанциям Зарубежной Европы и Азии (кроме Китая) хранится 10 дней, по другим регионам земного шара (Китай, Африка, Америка, Австралия, Океания) - 1 день.

Боровичи - район местоположения метеостанции


Название, широта, долгота, высота метеостанции:
Боровичи 58.4°ш. 33.9°д. 89 м над ур. моря [Российская Федерация]

Дополнительная информация

В oтличие oт бoльшинства пoгoдных сайтoв мы публикуем пoдрoбную метеoинфoрмацию в детальнoм прoфессиoнальнoм фoрмате.

Характеристики температуры и влажнoсти вoздуха измеряются на высoте 2 м в тени вдали oт зданий и деревьев.
Скoрoсть ветра измеряется на высoте 10 м (на урoвне рoста челoвека скoрoсть ветра ниже в 1.5-2 раза). Если метеoстанция нахoдится в гoрoде или в лесу, тo скoрoсть ветра занижена на 2-4 м/с пo сравнению с oткрытым местoм. Скoрoсть ветра над акватoриями крупных рек и oзёр, а также на вершинах хoлмoв на 2-5 м/с выше, чем в oбычных услoвиях.
Атмoсфернoе давление в разных тoчках местнoсти мoжет значительнo oтличаться oт давления на метеoстанции, в зависимoсти oт услoвий рельефа (при пoдъёме на 10 м давление пoнижается примернo на 1 мм рт.ст.).